Voltar ao catálogo

CZ-2D R/B

AtivoSSO
NORAD 54030·ROCKET BODY·🇨🇳 China

Lançado Oct 8, 2022 de Jiuquan Satellite Launch Center

Loading…

Próximas Passagens (próximas 24 horas)

TLE

AtualizadoSource: Space-Track

Época: Sep 14, 2026, 22:27 UTC

1 54030U 22129B   26257.93565804  .00000245  00000-0  64770-4 0  9999
2 54030  98.2169 259.7399 0017522 350.5917   9.4950 14.56852666209074

Acompanhe CZ-2D R/B em tempo real com AllMySat

Download on the App Store